| time (UTC) | temp F | wind direction | speed MPH | gust MPH | rain 1hr in | rain 24hr in | rain mn in | humidity % | barometer mb |
| 20260504043555 | 62 | 47 | 0.0 | 1.0 | 0.00 | 0.00 | 0.00 | 47 | 1006.7 |
| 20260504043100 | 63 | 47 | 0.0 | 1.0 | 0.00 | 0.00 | 0.00 | 46 | 1006.7 |
| 20260504042555 | 63 | 47 | 0.0 | 1.0 | 0.00 | 0.00 | 0.00 | 45 | 1006.7 |
| 20260504042054 | 64 | 318 | 0.0 | 1.0 | 0.00 | 0.00 | 0.00 | 44 | 1006.6 |
| 20260504041555 | 65 | 317 | 0.0 | 1.0 | 0.00 | 0.00 | 0.00 | 44 | 1006.6 |
| 20260504041054 | 65 | 317 | 0.0 | 1.0 | 0.00 | 0.00 | 0.00 | 43 | 1006.6 |
| 20260504040555 | 65 | 317 | 0.0 | 1.0 | 0.00 | 0.00 | 0.00 | 43 | 1006.5 |
| 20260504040126 | 65 | 317 | 0.0 | 1.0 | 0.00 | 0.00 | 0.00 | 42 | 1006.5 |
| 20260504035554 | 66 | 301 | 0.0 | 1.0 | 0.00 | 0.00 | 0.00 | 44 | 1006.4 |
| 20260504035056 | 66 | 301 | 0.0 | 0.0 | 0.00 | 0.00 | 0.00 | 43 | 1006.4 |
| 20260504034600 | 67 | 288 | 0.0 | 0.0 | 0.00 | 0.00 | 0.00 | 42 | 1006.3 |
| 20260504034052 | 68 | 288 | 0.0 | 0.0 | 0.00 | 0.00 | 0.00 | 41 | 1006.3 |
| 20260504033552 | 69 | 288 | 0.0 | 0.0 | 0.00 | 0.00 | 0.00 | 39 | 1006.3 |
| 20260504033052 | 71 | 288 | 0.0 | 0.0 | 0.00 | 0.00 | 0.00 | 37 | 1006.3 |
| 20260504032552 | 71 | 288 | 0.0 | 1.0 | 0.00 | 0.00 | 0.00 | 34 | 1006.2 |
| 20260504032052 | 72 | 288 | 0.0 | 2.0 | 0.00 | 0.00 | 0.00 | 33 | 1006.2 |
| 20260504031601 | 73 | 288 | 0.0 | 3.0 | 0.00 | 0.00 | 0.00 | 32 | 1006.2 |
| 20260504031052 | 74 | 304 | 1.0 | 3.0 | 0.00 | 0.00 | 0.00 | 31 | 1006.1 |
| 20260504030551 | 74 | 295 | 1.0 | 2.0 | 0.00 | 0.00 | 0.00 | 30 | 1006.1 |
| 20260504030052 | 75 | 285 | 0.0 | 2.0 | 0.00 | 0.00 | 0.00 | 29 | 1006.1 |
| 20260504025554 | 75 | 283 | 1.0 | 2.0 | 0.00 | 0.00 | 0.00 | 28 | 1006.1 |
| 20260504025055 | 76 | 287 | 1.0 | 3.0 | 0.00 | 0.00 | 0.00 | 27 | 1006.1 |
| 20260504024551 | 76 | 305 | 1.0 | 5.0 | 0.00 | 0.00 | 0.00 | 27 | 1006.1 |
| 20260504024050 | 77 | 304 | 2.0 | 5.0 | 0.00 | 0.00 | 0.00 | 26 | 1006.1 |
| 20260504023550 | 77 | 293 | 1.0 | 4.0 | 0.00 | 0.00 | 0.00 | 25 | 1006.0 |
| 20260504023050 | 78 | 285 | 1.0 | 7.0 | 0.00 | 0.00 | 0.00 | 25 | 1006.1 |
| 20260504022550 | 78 | 307 | 1.0 | 7.0 | 0.00 | 0.00 | 0.00 | 24 | 1006.1 |
| 20260504022049 | 78 | 277 | 2.0 | 7.0 | 0.00 | 0.00 | 0.00 | 24 | 1006.1 |
| 20260504021550 | 79 | 285 | 3.0 | 8.0 | 0.00 | 0.00 | 0.00 | 23 | 1006.1 |
| 20260504021049 | 79 | 294 | 1.0 | 7.0 | 0.00 | 0.00 | 0.00 | 23 | 1006.1 |
| 20260504020549 | 79 | 291 | 2.0 | 9.0 | 0.00 | 0.00 | 0.00 | 22 | 1006.1 |
| 20260504020106 | 79 | 291 | 2.0 | 9.0 | 0.00 | 0.00 | 0.00 | 22 | 1006.2 |
| 20260504015552 | 79 | 299 | 1.0 | 8.0 | 0.00 | 0.00 | 0.00 | 22 | 1006.2 |
| 20260504015052 | 79 | 293 | 2.0 | 8.0 | 0.00 | 0.00 | 0.00 | 22 | 1006.2 |
| 20260504014547 | 80 | 298 | 1.0 | 5.0 | 0.00 | 0.00 | 0.00 | 22 | 1006.1 |
| 20260504014046 | 80 | 315 | 2.0 | 6.0 | 0.00 | 0.00 | 0.00 | 22 | 1006.2 |
| 20260504013546 | 80 | 280 | 3.0 | 8.0 | 0.00 | 0.00 | 0.00 | 21 | 1006.3 |
| 20260504013047 | 80 | 290 | 2.0 | 8.0 | 0.00 | 0.00 | 0.00 | 21 | 1006.3 |
| 20260504012546 | 80 | 305 | 2.0 | 8.0 | 0.00 | 0.00 | 0.00 | 21 | 1006.3 |
| 20260504012046 | 80 | 309 | 3.0 | 7.0 | 0.00 | 0.00 | 0.00 | 21 | 1006.3 |
| 20260504011546 | 80 | 304 | 3.0 | 10.0 | 0.00 | 0.00 | 0.00 | 20 | 1006.4 |
| 20260504011044 | 81 | 307 | 4.0 | 10.0 | 0.00 | 0.00 | 0.00 | 21 | 1006.5 |
| 20260504010544 | 81 | 291 | 2.0 | 9.0 | 0.00 | 0.00 | 0.00 | 20 | 1006.5 |
| 20260504010048 | 81 | 296 | 3.0 | 12.0 | 0.00 | 0.00 | 0.00 | 20 | 1006.6 |
| 20260504005542 | 81 | 305 | 4.0 | 12.0 | 0.00 | 0.00 | 0.00 | 20 | 1006.7 |
| 20260504005044 | 81 | 328 | 2.0 | 10.0 | 0.00 | 0.00 | 0.00 | 20 | 1006.7 |
| 20260504004540 | 81 | 300 | 3.0 | 8.0 | 0.00 | 0.00 | 0.00 | 21 | 1006.8 |
| 20260504004040 | 81 | 307 | 4.0 | 10.0 | 0.00 | 0.00 | 0.00 | 21 | 1006.9 |
| 20260504003541 | 82 | 294 | 4.0 | 9.0 | 0.00 | 0.00 | 0.00 | 20 | 1007.0 |
| 20260504003038 | 82 | 300 | 3.0 | 9.0 | 0.00 | 0.00 | 0.00 | 21 | 1007.1 |
| 20260504002539 | 82 | 291 | 3.0 | 9.0 | 0.00 | 0.00 | 0.00 | 20 | 1007.2 |
| 20260504002037 | 82 | 288 | 3.0 | 12.0 | 0.00 | 0.00 | 0.00 | 21 | 1007.1 |
| 20260504001547 | 82 | 300 | 3.0 | 9.0 | 0.00 | 0.00 | 0.00 | 22 | 1007.2 |
| 20260504001037 | 82 | 301 | 3.0 | 6.0 | 0.00 | 0.00 | 0.00 | 22 | 1007.2 |
| 20260504000535 | 82 | 301 | 2.0 | 9.0 | 0.00 | 0.00 | 0.00 | 22 | 1007.3 |
| 20260504000037 | 82 | 277 | 3.0 | 9.0 | 0.00 | 0.00 | 0.00 | 21 | 1007.3 |
| 20260503235536 | 82 | 298 | 3.0 | 7.0 | 0.00 | 0.00 | 0.00 | 22 | 1007.5 |
| 20260503235034 | 82 | 322 | 2.0 | 10.0 | 0.00 | 0.00 | 0.00 | 23 | 1007.4 |
| 20260503234551 | 82 | 305 | 3.0 | 10.0 | 0.00 | 0.00 | 0.00 | 22 | 1007.4 |
| 20260503234033 | 82 | 294 | 5.0 | 11.0 | 0.00 | 0.00 | 0.00 | 23 | 1007.4 |
| 20260503233532 | 82 | 318 | 2.0 | 11.0 | 0.00 | 0.00 | 0.00 | 24 | 1007.3 |
| 20260503233038 | 82 | 296 | 4.0 | 12.0 | 0.00 | 0.00 | 0.00 | 24 | 1007.5 |
| 20260503232531 | 82 | 297 | 4.0 | 12.0 | 0.00 | 0.00 | 0.00 | 24 | 1007.5 |
| 20260503232030 | 82 | 294 | 3.0 | 10.0 | 0.00 | 0.00 | 0.00 | 25 | 1007.6 |
| 20260503231534 | 82 | 269 | 2.0 | 6.0 | 0.00 | 0.00 | 0.00 | 25 | 1007.8 |
| 20260503231029 | 82 | 124 | 2.0 | 9.0 | 0.00 | 0.00 | 0.00 | 26 | 1007.8 |
| 20260503230533 | 82 | 274 | 4.0 | 9.0 | 0.00 | 0.00 | 0.00 | 26 | 1008.0 |
| 20260503230027 | 82 | 293 | 2.0 | 8.0 | 0.00 | 0.00 | 0.00 | 26 | 1008.0 |
| 20260503225526 | 82 | 345 | 4.0 | 9.0 | 0.00 | 0.00 | 0.00 | 26 | 1008.1 |
| 20260503225025 | 81 | 301 | 5.0 | 9.0 | 0.00 | 0.00 | 0.00 | 26 | 1008.3 |
| 20260503224524 | 81 | 311 | 3.0 | 8.0 | 0.00 | 0.00 | 0.00 | 26 | 1008.3 |
| 20260503224023 | 81 | 326 | 5.0 | 10.0 | 0.00 | 0.00 | 0.00 | 26 | 1008.4 |
| 20260503223523 | 81 | 295 | 4.0 | 10.0 | 0.00 | 0.00 | 0.00 | 25 | 1008.5 |
| 20260503223021 | 81 | 315 | 2.0 | 7.0 | 0.00 | 0.00 | 0.00 | 25 | 1008.6 |
| 20260503222521 | 81 | 290 | 2.0 | 11.0 | 0.00 | 0.00 | 0.00 | 24 | 1008.7 |
| 20260503222019 | 81 | 298 | 3.0 | 11.0 | 0.00 | 0.00 | 0.00 | 24 | 1008.9 |
| 20260503221526 | 81 | 309 | 1.0 | 6.0 | 0.00 | 0.00 | 0.00 | 25 | 1008.9 |
| 20260503221018 | 80 | 296 | 2.0 | 7.0 | 0.00 | 0.00 | 0.00 | 26 | 1009.0 |
| 20260503220517 | 81 | 300 | 3.0 | 12.0 | 0.00 | 0.00 | 0.00 | 25 | 1009.1 |
| 20260503220016 | 81 | 301 | 2.0 | 12.0 | 0.00 | 0.00 | 0.00 | 26 | 1009.2 |
| 20260503215516 | 81 | 296 | 2.0 | 9.0 | 0.00 | 0.00 | 0.00 | 26 | 1009.2 |
| 20260503215015 | 80 | 303 | 2.0 | 9.0 | 0.00 | 0.00 | 0.00 | 27 | 1009.4 |
| 20260503214514 | 80 | 302 | 4.0 | 9.0 | 0.00 | 0.00 | 0.00 | 27 | 1009.5 |
| 20260503214012 | 80 | 301 | 2.0 | 8.0 | 0.00 | 0.00 | 0.00 | 29 | 1009.6 |
| 20260503213511 | 80 | 319 | 2.0 | 8.0 | 0.00 | 0.00 | 0.00 | 29 | 1009.7 |
| 20260503213010 | 80 | 321 | 1.0 | 8.0 | 0.00 | 0.00 | 0.00 | 29 | 1009.8 |
| 20260503212509 | 80 | 303 | 3.0 | 8.0 | 0.00 | 0.00 | 0.00 | 29 | 1010.0 |
| 20260503212007 | 79 | 305 | 2.0 | 5.0 | 0.00 | 0.00 | 0.00 | 29 | 1010.0 |
| 20260503211506 | 79 | 291 | 1.0 | 8.0 | 0.00 | 0.00 | 0.00 | 30 | 1010.1 |
| 20260503211010 | 79 | 305 | 4.0 | 8.0 | 0.00 | 0.00 | 0.00 | 29 | 1010.1 |
| 20260503210505 | 79 | 307 | 2.0 | 7.0 | 0.00 | 0.00 | 0.00 | 30 | 1010.2 |
| 20260503210005 | 79 | 301 | 3.0 | 6.0 | 0.00 | 0.00 | 0.00 | 30 | 1010.2 |
| 20260503205503 | 79 | 295 | 1.0 | 6.0 | 0.00 | 0.00 | 0.00 | 30 | 1010.2 |
| 20260503205003 | 79 | 301 | 3.0 | 6.0 | 0.00 | 0.00 | 0.00 | 30 | 1010.3 |
| 20260503204500 | 79 | 120 | 1.0 | 5.0 | 0.00 | 0.00 | 0.00 | 27 | 1010.4 |
| 20260503204059 | 79 | 139 | 1.0 | 5.0 | 0.00 | 0.00 | 0.00 | 28 | 1010.5 |
| 20260503203559 | 79 | 307 | 1.0 | 7.0 | 0.00 | 0.00 | 0.00 | 26 | 1010.6 |
| 20260503203059 | 78 | 278 | 2.0 | 7.0 | 0.00 | 0.00 | 0.00 | 25 | 1010.6 |
| 20260503202557 | 78 | 347 | 1.0 | 7.0 | 0.00 | 0.00 | 0.00 | 26 | 1010.7 |
| 20260503202057 | 78 | 297 | 2.0 | 7.0 | 0.00 | 0.00 | 0.00 | 25 | 1010.8 |
| 20260503201556 | 79 | 297 | 1.0 | 4.0 | 0.00 | 0.00 | 0.00 | 26 | 1010.8 |
| 20260503201055 | 79 | 285 | 1.0 | 4.0 | 0.00 | 0.00 | 0.00 | 28 | 1010.9 |
| 20260503200553 | 78 | 264 | 0.0 | 5.0 | 0.00 | 0.00 | 0.00 | 28 | 1010.9 |
| 20260503200056 | 77 | 108 | 2.0 | 5.0 | 0.00 | 0.00 | 0.00 | 27 | 1011.0 |
| 20260503195556 | 77 | 121 | 1.0 | 4.0 | 0.00 | 0.00 | 0.00 | 28 | 1011.1 |
| 20260503195054 | 77 | 316 | 1.0 | 4.0 | 0.00 | 0.00 | 0.00 | 28 | 1011.2 |
| 20260503194558 | 77 | 297 | 1.0 | 5.0 | 0.00 | 0.00 | 0.00 | 30 | 1011.3 |
| 20260503194048 | 76 | 270 | 1.0 | 7.0 | 0.00 | 0.00 | 0.00 | 29 | 1011.3 |
| 20260503193547 | 75 | 288 | 2.0 | 7.0 | 0.00 | 0.00 | 0.00 | 30 | 1011.4 |
| 20260503193046 | 76 | 296 | 2.0 | 5.0 | 0.00 | 0.00 | 0.00 | 31 | 1011.5 |
| 20260503192544 | 75 | 226 | 0.0 | 5.0 | 0.00 | 0.00 | 0.00 | 31 | 1011.7 |
| 20260503192043 | 74 | 283 | 3.0 | 6.0 | 0.00 | 0.00 | 0.00 | 32 | 1011.7 |
| 20260503191546 | 74 | 277 | 0.0 | 6.0 | 0.00 | 0.00 | 0.00 | 32 | 1011.8 |
| 20260503191042 | 75 | 296 | 2.0 | 5.0 | 0.00 | 0.00 | 0.00 | 32 | 1011.8 |
| 20260503190541 | 75 | 128 | 1.0 | 4.0 | 0.00 | 0.00 | 0.00 | 33 | 1011.9 |
| 20260503190039 | 74 | 294 | 0.0 | 5.0 | 0.00 | 0.00 | 0.00 | 33 | 1012.0 |
| 20260503185638 | 74 | 282 | 1.0 | 5.0 | 0.00 | 0.00 | 0.00 | 32 | 1012.0 |
| 20260503185037 | 73 | 297 | 0.0 | 5.0 | 0.00 | 0.00 | 0.00 | 33 | 1012.1 |
| 20260503184535 | 73 | 282 | 1.0 | 5.0 | 0.00 | 0.00 | 0.00 | 33 | 1012.2 |
| 20260503184035 | 73 | 293 | 1.0 | 4.0 | 0.00 | 0.00 | 0.00 | 33 | 1012.2 |
| 20260503183533 | 73 | 295 | 1.0 | 4.0 | 0.00 | 0.00 | 0.00 | 33 | 1012.3 |
| 20260503183034 | 72 | 136 | 2.0 | 4.0 | 0.00 | 0.00 | 0.00 | 33 | 1012.4 |
| 20260503182531 | 72 | 300 | 1.0 | 4.0 | 0.00 | 0.00 | 0.00 | 33 | 1012.4 |
| 20260503182030 | 72 | 293 | 1.0 | 4.0 | 0.00 | 0.00 | 0.00 | 33 | 1012.5 |
| 20260503181529 | 71 | 121 | 1.0 | 4.0 | 0.00 | 0.00 | 0.00 | 33 | 1012.6 |
| 20260503181027 | 71 | 286 | 0.0 | 4.0 | 0.00 | 0.00 | 0.00 | 34 | 1012.6 |
| 20260503180526 | 70 | 311 | 0.0 | 3.0 | 0.00 | 0.00 | 0.00 | 35 | 1012.7 |
| 20260503180025 | 70 | 305 | 0.0 | 3.0 | 0.00 | 0.00 | 0.00 | 34 | 1012.7 |
| 20260503175523 | 70 | 301 | 1.0 | 3.0 | 0.00 | 0.00 | 0.00 | 34 | 1012.8 |
| 20260503175022 | 69 | 291 | 1.0 | 3.0 | 0.00 | 0.00 | 0.00 | 34 | 1012.8 |
| 20260503174521 | 69 | 288 | 0.0 | 3.0 | 0.00 | 0.00 | 0.00 | 35 | 1012.9 |
| 20260503174019 | 69 | 280 | 0.0 | 4.0 | 0.00 | 0.00 | 0.00 | 36 | 1013.0 |
| 20260503173518 | 68 | 322 | 0.0 | 4.0 | 0.00 | 0.00 | 0.00 | 36 | 1013.0 |
| 20260503173017 | 68 | 300 | 3.0 | 4.0 | 0.00 | 0.00 | 0.00 | 36 | 1013.0 |
| 20260503172516 | 68 | 294 | 1.0 | 3.0 | 0.00 | 0.00 | 0.00 | 36 | 1013.0 |
| 20260503172016 | 68 | 283 | 2.0 | 3.0 | 0.00 | 0.00 | 0.00 | 36 | 1013.1 |
| 20260503171514 | 67 | 288 | 0.0 | 4.0 | 0.00 | 0.00 | 0.00 | 36 | 1013.1 |
| 20260503171013 | 67 | 305 | 1.0 | 4.0 | 0.00 | 0.00 | 0.00 | 36 | 1013.2 |
| 20260503170513 | 67 | 305 | 1.0 | 3.0 | 0.00 | 0.00 | 0.00 | 35 | 1013.2 |
| 20260503150545 | 57 | 120 | 0.0 | 0.0 | 0.00 | 0.00 | 0.00 | 53 | 1014.1 |
| 20260503131038 | 43 | 112 | 0.0 | 0.0 | 0.00 | 0.00 | 0.00 | 84 | 1013.7 |
| 20260503130540 | 43 | 112 | 0.0 | 0.0 | 0.00 | 0.00 | 0.00 | 83 | 1013.7 |
| 20260503110521 | 46 | 91 | 0.0 | 0.0 | 0.00 | 0.00 | 0.00 | 77 | 1013.6 |
| 20260503090501 | 49 | 91 | 0.0 | 0.0 | 0.00 | 0.00 | 0.00 | 72 | 1013.1 |
| 20260503090105 | 49 | 91 | 0.0 | 0.0 | 0.00 | 0.00 | 0.00 | 72 | 1013.2 |
| 20260503081554 | 50 | 91 | 0.0 | 0.0 | 0.00 | 0.00 | 0.00 | 70 | 1013.4 |
| 20260503081052 | 50 | 91 | 0.0 | 0.0 | 0.00 | 0.00 | 0.00 | 71 | 1013.5 |
| 20260503080552 | 50 | 91 | 0.0 | 0.0 | 0.00 | 0.00 | 0.00 | 71 | 1013.4 |
| 20260503072544 | 52 | 91 | 0.0 | 1.0 | 0.00 | 0.00 | 0.00 | 65 | 1013.5 |
| 20260503072043 | 53 | 91 | 0.0 | 1.0 | 0.00 | 0.00 | 0.00 | 64 | 1013.5 |
| 20260503071601 | 53 | 91 | 0.0 | 1.0 | 0.00 | 0.00 | 0.00 | 62 | 1013.4 |
| 20260503071040 | 54 | 92 | 0.0 | 0.0 | 0.00 | 0.00 | 0.00 | 61 | 1013.4 |
| 20260503070539 | 54 | 91 | 0.0 | 1.0 | 0.00 | 0.00 | 0.00 | 59 | 1013.4 |
| 20260503055023 | 58 | 92 | 0.0 | 0.0 | 0.00 | 0.00 | 0.00 | 53 | 1012.8 |
| 20260503054531 | 58 | 92 | 0.0 | 0.0 | 0.00 | 0.00 | 0.00 | 52 | 1012.8 |
| 20260503054023 | 58 | 92 | 0.0 | 0.0 | 0.00 | 0.00 | 0.00 | 50 | 1012.7 |
| 20260503053523 | 58 | 91 | 0.0 | 0.0 | 0.00 | 0.00 | 0.00 | 52 | 1012.8 |
| 20260503053023 | 59 | 92 | 0.0 | 0.0 | 0.00 | 0.00 | 0.00 | 52 | 1012.8 |
| 20260503052523 | 59 | 91 | 0.0 | 0.0 | 0.00 | 0.00 | 0.00 | 51 | 1012.7 |
| 20260503052024 | 59 | 92 | 0.0 | 0.0 | 0.00 | 0.00 | 0.00 | 50 | 1012.7 |
| 20260503051522 | 59 | 91 | 0.0 | 0.0 | 0.00 | 0.00 | 0.00 | 51 | 1012.7 |
| 20260503051022 | 59 | 92 | 0.0 | 0.0 | 0.00 | 0.00 | 0.00 | 51 | 1012.7 |
| 20260503050521 | 59 | 92 | 0.0 | 0.0 | 0.00 | 0.00 | 0.00 | 51 | 1012.7 |
| 20260503050034 | 59 | 92 | 0.0 | 1.0 | 0.00 | 0.00 | 0.00 | 52 | 1012.7 |
| 20260503045521 | 59 | 92 | 0.0 | 1.0 | 0.00 | 0.00 | 0.00 | 51 | 1012.6 |
| 20260503045025 | 60 | 92 | 0.0 | 1.0 | 0.00 | 0.00 | 0.00 | 52 | 1012.6 |
| 20260503044522 | 61 | 92 | 0.0 | 1.0 | 0.00 | 0.00 | 0.00 | 52 | 1012.6 |
| 20260503044021 | 62 | 85 | 0.0 | 1.0 | 0.00 | 0.00 | 0.00 | 49 | 1012.6 |